STARLINK-35439, 66431

Orbit data source: Space-Track

STARLINK-35439, 66431 is a payload satellite owned by SpaceX/Seattle (US) in LEO that was launched on Tue, 11 Nov 2025 UTC via an FALCON 9 launch vehicle from the Air Force Eastern Test Range (AFETR). Payload-class satellites include a variety of spacecraft equipped with specific instruments for various scientific and technological missions. These include communications satellites like Starlink; space stations such as the ISS; scientific satellites like the Hubble; Earth observation satellites from companies like Planet Labs, Umbra, and HawkEye 360; GPS; miniature CubeSats for education and research; and military/defense satellites.

Loading next visibility...
Identifier
66431, 2025-259K
Orbit
LEO
Country
Flag of USUS
Related business
Manufacturer
SpaceX/Seattle
Mission
Operational Commercial Communications
Bus & Motor
STARLINK V2MO, Unknown motor
Mass
575 kg wet, ~530 kg dry
Launch date (UTC)
2025-11-11 (7 months ago)
Launch vehicle
FALCON 9
Launch site
Air Force Eastern Test Range (AFETR)
Object type
Payload
Rocket body
Debris
Shape & HBR
Box + 2 Pan, 17.7 m
Radar Cross Section
36.964 m², Large (>1 m²)

Expand to show TLE details & history
Last TLE update: 14 hours ago

TLE from 14 hours ago
0 STARLINK-35439
1 66431U 25259K   26150.09430198  .00023626  00000-0  86551-3 0  9998
2 66431  42.9993 174.3961 0000793 254.7600 105.3164 15.27572198 31946
Epoch: 2026-05-30T02:15Z
TLE epoch observation values (Epoch: 2026-05-30T02:15:47.691Z)
Latitude
Longitude
-107.16788°
Altitude
482.992 km
Speed
7.626 km/s
True Right ascension
11h 37m 35s
True Declination
0° 00' 00"
Sunlit
Object was in daylight at epoch
Visualization orbit readout
Latitude
Unknown
Longitude
Unknown
Altitude
Unknown
Speed
Unknown
Apparent Right ascension
Unknown
Apparent Declination
Unknown
Sunlit
N/A
Visualization observer readout
Local Sidereal Time
02:07:45
Azimuth
Unknown
Elevation
Unknown
Doppler factor
Unknown
Orbital elements
Apogee altitude
485.562 km
Perigee altitude
484.473 km
Semi-major axis
6,863.155 km
Eccentricity
0.00008
Inclination
42.9993°
RAAN
174.3961°
Arg. of periapsis
254.76°
True anomaly
105.32516°
Mean anomaly
105.3164°
Eccentric anomaly
105.32078°
Mean motion
3.81731 °/min
Orbital period
94.31 mins
BSTAR
0.00086551
Loading maneuver chart data...
Computing Atmospheric mass density...
Loading historical data...
Loading historical data...
Loading historical data...
Loading historical data...
Loading historical data...
Loading historical data...
Loading historical data...

Documentation

Showing up to 5 results
|